Wind_Speed
28 29 29 28 27 27 27 26 26 25 24 22 23 22 20 19 18 16 15 14 12 11 9 9 9 9 9 9 10 11 11 12 13 14 15 17 19 19 20 20 21 21 22 22
31 31 32 31 30 29 29 29 30 29 28 27 27 26 24 23 21 19 18 16 15 14 13 12 11 11 11 11 12 13 14 14 15 15 16 17 18 19 20 20 21 22 23 24
32 33 34 33 30 30 30 30 31 31 29 30 30 30 28 26 25 23 21 19 18 17 16 15 14 13 14 14 15 16 16 16 16 17 16 15 16 18 19 21 22 23 24 26
32 33 35 31 31 30 31 31 32 32 31 31 31 31 30 30 29 27 25 23 22 20 19 18 17 17 17 17 17 17 17 17 18 18 18 18 18 19 19 21 23 25 26 28
31 31 32 30 30 30 31 31 31 32 31 31 31 31 31 31 31 30 28 27 25 24 22 21 20 20 19 18 19 19 18 19 19 19 20 21 21 21 21 23 25 27 29 30
29 30 30 30 28 29 30 31 30 31 31 31 31 33 33 33 33 32 31 30 29 27 26 24 23 22 22 21 20 20 20 21 22 22 22 22 23 24 25 27 28 30 31 33
27 29 29 29 27 27 29 30 29 29 30 31 32 33 33 33 34 34 33 32 31 30 29 27 26 26 26 25 24 23 23 23 23 24 24 25 26 27 29 30 31 33 34 36
26 27 28 27 26 27 27 27 27 28 29 30 31 32 33 34 34 34 33 33 32 31 30 29 29 28 28 27 27 27 26 26 26 27 28 28 29 30 31 32 33 35 36 37
26 26 26 26 25 25 26 26 26 27 28 29 29 31 32 33 34 34 34 33 32 31 31 31 31 31 30 30 29 29 28 29 29 29 29 30 31 32 32 34 35 36 38 39
24 24 25 25 25 24 24 24 24 26 27 28 29 30 31 32 32 33 33 33 32 31 31 31 32 32 32 31 30 30 30 30 29 29 30 31 32 33 34 35 36 38 39 41
22 23 23 23 22 22 21 21 22 23 23 25 26 28 29 30 31 32 32 32 32 31 30 31 32 31 31 30 29 29 29 30 30 29 30 31 32 33 35 36 38 40 41 43
21 21 20 19 18 18 18 18 18 18 19 21 22 25 27 29 29 29 30 31 30 30 29 29 28 28 28 27 27 27 27 28 29 30 31 32 33 34 36 38 40 41 44 46
18 18 17 15 15 16 15 14 14 15 16 18 19 21 24 25 25 26 28 28 28 27 26 25 25 25 24 24 25 25 26 28 29 31 32 33 34 36 38 40 42 45 47 49
16 15 14 13 12 12 11 12 12 13 14 16 18 18 19 20 21 21 23 23 23 23 22 21 20 20 21 23 24 25 27 29 30 31 33 35 37 39 42 44 46 48 51 53
13 13 12 11 10 11 10 10 11 13 14 15 16 17 17 17 18 18 18 19 18 18 18 18 19 20 21 22 24 26 27 29 31 33 35 38 41 43 46 48 50 52 53 54
12 11 9 8 9 10 11 11 10 11 13 14 15 15 15 14 14 14 14 15 15 15 16 17 18 19 21 23 25 27 29 31 34 37 39 42 44 47 49 50 51 52 53 53
10 9 8 8 9 10 11 11 11 11 12 12 11 10 9 9 10 10 10 11 12 13 15 17 18 20 23 25 27 30 32 35 38 40 43 45 47 48 49 50 51 51 50 50
11 10 8 8 8 9 10 10 10 10 9 8 8 7 7 8 8 9 10 11 13 14 16 18 21 23 26 28 31 34 36 38 41 43 44 46 47 48 48 49 49 49 48 48
12 10 9 8 7 7 7 7 7 7 7 6 6 7 8 8 9 9 11 12 14 17 19 22 24 27 29 32 34 36 39 40 42 44 45 46 46 47 47 47 46 46 45 44
12 11 10 9 8 8 7 6 6 6 6 6 7 8 8 9 11 12 14 16 18 20 23 25 28 30 32 35 37 38 40 41 42 43 44 45 45 45 44 43 42 41 40 39
13 12 11 11 10 10 9 8 7 8 8 8 9 10 11 12 14 16 18 20 22 24 26 29 31 33 35 36 38 39 40 40 41 42 42 42 42 41 40 39 38 37 36 35
14 13 12 12 12 12 11 10 10 10 11 11 12 13 14 16 18 19 21 23 26 28 30 31 33 34 36 37 38 38 38 39 39 39 39 38 38 37 36 35 34 33 33 32
14 14 13 13 13 13 13 12 13 13 14 15 16 17 18 19 21 23 25 27 29 30 32 33 34 35 36 36 36 36 36 36 36 36 35 34 34 33 32 31 31 31 30 29
14 14 14 14 14 14 14 14 15 16 17 18 19 20 21 22 24 26 27 29 30 31 32 33 34 34 34 33 33 33 33 33 32 32 31 31 30 30 29 28 28 28 27 26
14 14 14 14 14 14 15 15 17 18 19 20 21 22 23 25 26 28 29 30 31 32 32 33 32 31 31 30 30 30 30 29 28 28 28 27 27 27 26 26 26 25 25 24
14 15 15 15 16 16 17 18 19 20 21 22 24 25 26 27 28 29 30 31 31 31 31 30 29 28 28 27 27 26 25 25 25 25 24 24 24 24 24 24 23 23 23 23
14 15 15 16 17 18 19 20 22 22 23 24 26 27 28 29 29 30 30 30 29 28 27 27 26 25 25 25 24 23 23 23 22 21 21 21 22 23 23 22 22 22 23 23
Wind_Direction
244 247 253 254 254 255 256 256 257 258 259 260 261 263 264 267 270 274 277 281 283 282 286 285 284 275 269 264 261 259 258 256 256 258 256 256 256 255 254 256 258 259 261 262
251 254 256 256 256 258 259 259 260 259 257 256 256 256 258 259 260 263 265 270 272 273 276 278 277 276 274 270 268 268 265 261 259 263 261 260 259 257 258 260 261 262 265 268
253 255 258 259 260 260 261 260 260 260 257 253 251 250 251 251 252 254 257 262 266 267 268 270 272 272 274 270 269 267 263 260 259 263 263 260 264 263 262 264 266 268 270 271
254 256 259 262 262 262 261 261 260 259 256 251 249 248 247 247 247 249 252 256 259 262 264 265 265 267 269 268 268 265 262 261 263 263 263 264 268 269 268 270 273 274 275 276
255 259 262 262 263 263 261 259 259 259 256 252 249 246 244 243 244 245 247 251 254 257 258 260 261 262 264 268 268 263 260 260 261 264 266 268 269 270 273 275 277 277 278 279
258 260 262 264 263 262 262 260 257 256 255 252 248 246 243 241 240 242 244 248 251 253 255 256 258 260 261 264 266 262 260 261 262 264 269 271 271 273 275 277 277 278 280 281
258 262 263 264 264 262 261 260 257 255 253 251 246 243 241 238 238 238 241 244 247 250 253 254 255 258 261 261 261 261 261 262 263 266 269 272 275 277 278 279 280 281 282 283
259 263 266 265 264 261 260 260 257 253 251 248 245 241 238 236 235 236 238 241 244 246 249 251 252 256 258 259 258 258 260 262 264 267 270 273 276 278 280 281 282 282 283 283
260 263 265 267 265 262 260 258 255 252 250 246 243 239 236 234 234 234 234 237 240 243 247 248 251 253 255 257 257 257 259 262 265 269 272 275 277 279 281 282 283 283 284 284
261 263 265 267 265 263 260 257 253 249 246 244 241 238 235 233 232 232 232 233 237 242 246 248 247 248 250 252 254 256 261 265 266 270 273 276 278 280 281 283 284 285 286 287
261 263 265 266 265 263 261 259 253 249 244 241 237 234 232 231 230 229 230 231 235 239 243 245 246 245 247 249 253 257 262 266 269 273 275 278 280 282 283 285 286 287 288 289
260 262 263 263 262 260 261 258 251 244 238 235 231 230 228 226 225 226 227 229 232 236 239 243 243 244 245 249 253 258 266 270 273 275 278 280 283 285 286 288 289 290 290 291
260 261 261 258 258 259 259 248 240 235 228 223 222 219 217 218 220 223 226 229 230 232 236 239 243 248 251 256 260 266 271 275 277 280 283 285 287 288 289 290 291 292 293 294
255 257 254 251 250 246 243 235 230 224 217 215 214 210 210 214 214 216 219 224 228 230 234 242 250 256 261 266 269 273 277 280 283 286 288 289 290 291 292 293 294 295 296 297
247 246 244 240 237 232 231 220 214 212 206 203 204 205 205 205 209 214 217 219 223 230 240 249 257 263 269 274 277 279 282 285 288 290 291 292 294 295 296 297 298 299 300 300
236 233 233 229 224 213 201 193 196 198 194 189 190 194 196 201 208 215 221 225 234 243 251 261 268 273 277 280 283 286 289 291 292 293 295 296 298 299 300 301 302 302 303 303
221 222 222 216 200 187 183 184 184 181 181 187 194 199 204 214 221 227 235 245 254 261 268 273 276 281 285 288 291 292 294 295 296 297 298 300 301 302 303 303 304 304 305 305
211 212 198 187 181 176 173 173 172 173 175 180 190 198 209 224 236 244 254 262 268 273 278 282 285 288 291 293 294 296 297 298 299 300 302 303 303 304 305 305 306 306 306 305
205 204 196 191 186 181 174 176 178 180 187 199 211 220 232 244 253 261 268 274 278 282 285 288 290 293 295 296 297 299 300 302 302 303 304 305 306 306 307 307 307 306 306 306
207 204 203 201 203 200 200 206 210 215 223 230 239 247 255 263 269 274 278 282 286 289 291 293 295 297 298 299 301 302 303 304 304 305 306 307 307 308 308 308 308 308 308 308
213 213 214 214 212 214 219 225 233 240 244 249 256 263 269 274 278 282 286 289 292 294 296 297 298 299 301 302 303 304 305 305 306 307 308 308 309 310 310 310 310 311 311 310
211 212 214 215 222 229 235 240 246 251 256 263 269 275 279 282 285 288 291 294 295 297 298 298 300 301 302 303 304 305 305 306 308 309 310 311 312 312 312 312 313 314 314 313
213 218 222 225 230 234 240 246 251 257 262 268 275 279 282 285 288 291 293 295 297 298 299 300 301 302 302 304 305 306 307 308 310 312 313 314 315 316 316 317 317 318 318 317
218 223 227 232 235 239 246 252 257 262 267 273 278 281 284 287 290 292 294 296 297 299 300 301 302 302 304 305 307 308 309 311 312 314 315 317 319 320 321 322 322 323 322 323
223 227 233 238 242 249 256 261 265 269 274 277 281 284 286 289 292 294 296 297 299 300 301 301 302 304 306 308 309 310 312 314 316 318 319 321 322 324 325 326 327 328 327 327
230 237 242 245 250 256 262 266 270 274 278 281 284 286 288 291 293 295 296 298 300 300 301 302 304 306 308 309 311 312 314 316 319 322 324 325 327 329 331 332 333 334 334 333
242 247 252 256 260 264 268 272 275 278 280 283 285 288 290 292 294 296 298 299 300 300 302 303 305 306 308 310 312 313 315 318 321 324 327 329 331 332 334 336 337 337 337 338
Height
5813 5814 5816 5817 5818 5820 5821 5823 5824 5826 5827 5828 5827 5827 5827 5827 5827 5827 5827 5827 5827 5827 5827 5826 5826 5826 5826 5826 5827 5827 5828 5828 5828 5829 5830 5831 5831 5833 5834 5834 5835 5835 5836 5836
5804 5806 5806 5808 5810 5812 5813 5814 5815 5816 5818 5820 5819 5819 5820 5821 5822 5822 5823 5823 5823 5823 5824 5823 5823 5823 5823 5824 5824 5823 5824 5824 5824 5825 5826 5826 5826 5828 5828 5829 5829 5830 5830 5830
5796 5797 5797 5799 5803 5803 5804 5804 5805 5806 5809 5810 5810 5811 5812 5814 5815 5816 5817 5818 5818 5819 5819 5820 5820 5820 5820 5820 5820 5820 5819 5820 5820 5821 5821 5822 5822 5823 5823 5823 5824 5823 5823 5823
5787 5788 5788 5793 5792 5793 5793 5794 5795 5795 5798 5799 5800 5802 5804 5805 5807 5809 5811 5812 5813 5813 5814 5815 5816 5816 5816 5816 5816 5815 5815 5816 5816 5817 5817 5817 5818 5818 5818 5818 5818 5817 5817 5816
5778 5778 5779 5783 5783 5783 5783 5784 5785 5785 5787 5788 5790 5792 5795 5797 5799 5802 5804 5805 5806 5807 5809 5809 5810 5811 5811 5811 5811 5811 5811 5811 5812 5812 5812 5813 5813 5813 5812 5812 5811 5810 5809 5808
5769 5769 5771 5773 5773 5773 5774 5774 5775 5775 5776 5778 5780 5782 5785 5788 5790 5793 5795 5797 5799 5800 5802 5803 5804 5805 5806 5806 5806 5806 5806 5806 5806 5806 5807 5807 5807 5806 5806 5805 5804 5802 5801 5799
5760 5760 5761 5763 5763 5764 5765 5765 5765 5765 5766 5768 5770 5772 5775 5778 5781 5784 5787 5789 5791 5793 5795 5796 5798 5799 5800 5800 5801 5801 5801 5801 5801 5801 5801 5801 5800 5800 5799 5797 5796 5794 5792 5790
5752 5753 5755 5753 5754 5754 5755 5754 5755 5755 5756 5757 5759 5762 5765 5768 5772 5775 5778 5781 5783 5785 5787 5789 5790 5792 5793 5793 5794 5794 5794 5794 5794 5794 5794 5793 5793 5791 5790 5789 5787 5785 5783 5780
5745 5747 5745 5744 5744 5745 5745 5745 5745 5746 5747 5749 5751 5753 5756 5759 5763 5766 5770 5773 5775 5778 5779 5781 5783 5784 5785 5786 5787 5787 5787 5787 5787 5786 5786 5785 5784 5783 5781 5779 5777 5775 5773 5770
5737 5737 5736 5736 5736 5736 5736 5736 5737 5737 5739 5740 5742 5745 5747 5751 5754 5758 5761 5764 5767 5770 5772 5773 5775 5776 5777 5778 5779 5780 5780 5779 5779 5778 5777 5776 5775 5774 5772 5770 5767 5765 5762 5759
5730 5730 5729 5729 5728 5728 5728 5728 5729 5729 5731 5732 5734 5737 5740 5743 5747 5750 5753 5756 5759 5762 5764 5765 5766 5768 5769 5770 5771 5772 5772 5772 5771 5770 5769 5768 5766 5765 5762 5760 5757 5754 5751 5747
5723 5723 5722 5722 5721 5721 5721 5721 5722 5723 5724 5726 5728 5730 5733 5737 5740 5743 5746 5749 5752 5755 5757 5759 5760 5761 5762 5763 5764 5764 5764 5764 5763 5762 5761 5759 5757 5755 5752 5750 5746 5743 5739 5735
5717 5716 5716 5716 5716 5716 5716 5716 5717 5718 5719 5721 5723 5726 5729 5731 5735 5738 5741 5744 5746 5749 5751 5753 5754 5755 5756 5757 5757 5757 5757 5756 5755 5754 5752 5750 5747 5745 5742 5739 5735 5731 5726 5721
5712 5711 5711 5711 5711 5711 5712 5712 5713 5714 5716 5718 5720 5723 5726 5728 5731 5734 5736 5739 5742 5744 5746 5748 5749 5750 5750 5751 5751 5751 5750 5748 5747 5745 5743 5740 5737 5734 5730 5726 5722 5717 5712 5707
5707 5707 5708 5708 5708 5708 5709 5709 5710 5712 5714 5716 5718 5721 5723 5726 5729 5731 5733 5735 5738 5740 5741 5743 5744 5745 5745 5745 5745 5744 5742 5740 5738 5736 5733 5729 5726 5721 5717 5712 5707 5702 5697 5691
5704 5704 5704 5705 5705 5706 5707 5708 5709 5711 5712 5714 5717 5719 5721 5724 5727 5729 5730 5732 5733 5735 5737 5738 5739 5739 5739 5739 5738 5736 5734 5731 5729 5726 5722 5718 5713 5709 5704 5698 5693 5687 5681 5675
5701 5702 5703 5703 5704 5704 5705 5706 5708 5710 5712 5714 5716 5718 5721 5722 5724 5726 5728 5729 5730 5731 5732 5733 5733 5733 5732 5731 5729 5727 5725 5722 5718 5715 5710 5706 5701 5696 5690 5685 5679 5673 5667 5661
5699 5700 5701 5702 5703 5704 5705 5706 5708 5710 5712 5713 5715 5718 5720 5721 5723 5724 5725 5726 5727 5727 5728 5728 5727 5726 5725 5723 5721 5718 5715 5711 5707 5703 5698 5693 5688 5683 5677 5671 5665 5659 5654 5648
5697 5699 5700 5701 5703 5704 5705 5706 5708 5710 5712 5713 5715 5716 5718 5719 5720 5721 5722 5722 5723 5723 5722 5721 5720 5719 5717 5714 5711 5708 5704 5700 5696 5691 5686 5681 5676 5670 5664 5658 5653 5647 5641 5636
5696 5697 5699 5701 5702 5704 5705 5706 5708 5709 5711 5712 5713 5715 5716 5716 5717 5718 5718 5718 5718 5717 5716 5714 5712 5710 5707 5704 5701 5697 5693 5689 5684 5680 5675 5669 5664 5658 5653 5647 5641 5636 5630 5625
5694 5696 5698 5699 5701 5703 5704 5705 5707 5708 5709 5710 5711 5712 5713 5713 5713 5713 5713 5712 5711 5710 5708 5706 5704 5701 5698 5695 5691 5687 5683 5678 5674 5669 5664 5658 5653 5648 5642 5637 5631 5626 5620 5615
5692 5694 5696 5698 5699 5701 5702 5703 5705 5706 5707 5707 5708 5709 5709 5709 5708 5708 5707 5706 5704 5702 5700 5698 5695 5692 5688 5685 5681 5677 5673 5668 5663 5658 5653 5648 5643 5638 5633 5627 5622 5617 5612 5607
5690 5692 5694 5695 5697 5698 5700 5701 5702 5703 5703 5704 5704 5704 5704 5703 5703 5702 5700 5699 5697 5694 5692 5689 5686 5682 5679 5675 5671 5667 5663 5659 5654 5649 5644 5640 5635 5630 5624 5619 5614 5609 5604 5599
5688 5690 5692 5693 5695 5696 5697 5698 5698 5699 5699 5699 5699 5699 5698 5697 5696 5695 5693 5691 5688 5686 5683 5680 5676 5673 5670 5666 5662 5658 5654 5650 5645 5641 5636 5632 5627 5622 5617 5612 5607 5602 5598 5593
5685 5687 5689 5690 5691 5692 5693 5693 5694 5694 5694 5694 5693 5692 5691 5690 5689 5686 5684 5682 5680 5677 5674 5671 5668 5664 5661 5658 5654 5650 5646 5642 5638 5634 5629 5625 5621 5616 5611 5606 5602 5597 5592 5588
5682 5684 5685 5686 5687 5688 5688 5688 5688 5688 5688 5687 5686 5685 5683 5682 5680 5678 5676 5673 5671 5668 5665 5662 5659 5656 5653 5650 5646 5643 5639 5636 5632 5628 5624 5619 5615 5611 5606 5602 5597 5592 5588 5583
5678 5680 5681 5681 5682 5682 5683 5683 5683 5682 5681 5680 5679 5677 5675 5674 5672 5669 5667 5665 5662 5659 5657 5654 5651 5649 5646 5643 5640 5636 5633 5629 5626 5622 5619 5615 5611 5607 5602 5598 5593 5589 5584 5579